x

West Santa Barbara 38 Nm West Of Santa Barbara, Ca (46054) Wave Buoy

12:50 - Sat 23rd Jul 2016 All times are PDT. -7 hours from GMT.

  • Sig Wave height 8.5ft
  • Swell Direction
  • Peak Period 7s
  • Average Period 6s
  • Wind
    29mph, 36mph gusts
  • Sea Temp 55°f
  • Luft Temp 57°f
  • Sea Pressure 1011.4mb
  • West Santa Barbara  38 Nm West Of Santa Barbara, Ca
  • West Santa Barbara  38 Nm West Of Santa Barbara, Ca

More Historic Weather Station data

Upgrade to MSW Pro to gain access to the past 30 days of data for over 8000 Wavebouys and Weather Stations around the globe.

Join Pro

Comparision Forecast

View Surf forecast
   
Sa 07/23 12:50 8.5ft 7s 6s 29 36 mph 1011.4mb 55f 57f
Fr 07/22 11:50 8ft 8s 6s 29 34 mph 1011.7mb 55f 58f
10:50 8ft 8s 6s 29 36 mph 1011.9mb 55f 58f
9:50 8ft 8s 6s 27 34 mph 1012.3mb 55f 58f
8:50 7.5ft 7s 6s 29 34 mph 1012.1mb 55f 58f
7:50 8ft 8s 6s 29 36 mph 1011.9mb 55f 58f
6:50 8ft 8s 6s 27 36 mph 1012mb 55f 58f
5:50 7ft 8s 6s 29 36 mph 1011.9mb 55f 58f
4:50 7.5ft 8s 6s 31 36 mph 1012.3mb 55f 58f
3:50 7ft 7s 5s 29 36 mph 1012.7mb 55f 58f
2:50 6.5ft 7s 6s 29 36 mph 1013.3mb 55f 58f
1:50 7ft 7s 6s 29 36 mph 1013.9mb 55f 58f
12:50 6.5ft 7s 5s 29 36 mph 1014.5mb 56f 58f
11:50 7ft 8s 6s 29 34 mph 1014.4mb 56f 58f
10:50 7ft 8s 6s 29 34 mph 1014.4mb 56f 58f
9:50 7ft 7s 5s 29 36 mph 1014.2mb 56f 58f
8:50 6.5ft 8s 5s 29 34 mph 1014.2mb 56f 58f
7:50 7ft 8s 5s 27 31 mph 1013.9mb 56f 58f
6:50 7ft 8s 6s 27 34 mph 1013.1mb 56f 58f
5:50 6.5ft 8s 5s 29 31 mph 1012.7mb 55f 57f
4:50 7ft 8s 5s 29 34 mph 1012.6mb 55f 57f
3:50 7.5ft 7s 6s 27 34 mph 1012.6mb 55f 57f
2:50 8ft 8s 6s 27 34 mph 1012.9mb 56f 57f
1:50 8ft 7s 6s 29 36 mph 1013mb 56f 58f
12:50 8ft 7s 6s 29 36 mph 1013.4mb 56f 58f
Do 07/21 11:50 7ft 7s 6s 31 38 mph 1013.7mb 56f 58f
10:50 7ft 8s 5s 34 40 mph 1013.9mb 56f 58f
9:50 7ft 7s 5s 31 38 mph 1014.2mb 56f 58f
8:50 7.5ft 7s 6s 31 36 mph 1014mb 57f 58f
7:50 6ft 7s 5s 27 34 mph 1013.8mb 57f 58f
6:50 6ft 7s 5s 29 36 mph 1013.8mb 57f 58f
5:50 6ft 8s 5s 29 36 mph 1014mb 57f 58f
4:50 6ft 7s 5s 29 36 mph 1014.4mb 57f 58f
3:50 6ft 7s 5s 27 34 mph 1014.7mb 56f 58f
2:50 6ft 8s 5s 27 31 mph 1014.9mb 57f 57f
1:50 6ft 7s 5s 25 31 mph 1015.4mb 56f 57f
12:50 6ft 7s 5s 29 34 mph 1015.4mb 56f 56f
11:50 6ft 6s 5s 29 36 mph 1015.7mb 56f 56f
10:50 6ft 7s 5s 29 34 mph 1015.4mb 56f 55f
9:50 5.5ft 7s 5s 27 34 mph 1015.1mb 57f 55f
8:50 6ft 7s 5s 27 31 mph 1014.9mb 57f 55f
7:50 6ft 7s 5s 27 31 mph 1014.6mb 58f 55f
6:50 6ft 7s 5s 29 34 mph 1013.9mb 58f 55f
5:50 6ft 6s 5s 27 36 mph 1013.5mb 58f 55f
4:50 5.5ft 7s 5s 29 36 mph 1013.4mb 57f 56f
3:50 6ft 6s 5s 29 36 mph 1013.3mb 57f 57f
2:50 6ft 7s 5s 27 34 mph 1013.7mb 58f 57f
1:50 6ft 6s 5s 29 36 mph 1013.8mb 58f 58f
12:50 6ft 7s 5s 29 34 mph 1014mb 58f 58f
Mi 07/20 11:50 6ft 6s 5s 27 34 mph 1013.8mb 59f 58f
10:50 6ft 7s 5s 27 38 mph 1013.9mb 59f 58f
9:50 6ft 7s 5s 27 31 mph 1014.1mb 60f 58f
8:50 6ft 5s 5s 27 36 mph 1013.7mb 60f 58f
7:50 6ft 7s 5s 27 31 mph 1014mb 60f 58f
6:50 5.5ft 6s 5s 27 34 mph 1014.1mb 60f 59f
4:50 6ft 6s 5s 27 31 mph 1014.1mb 60f 59f
3:50 6ft 7s 5s 29 34 mph 1014.2mb 61f 59f
2:50 6ft 7s 5s 27 34 mph 1014.6mb 61f 59f
1:50 6ft 7s 5s 27 34 mph 1014.7mb 61f 59f
12:50 5.5ft 8s 5s 25 29 mph 1015.2mb 61f 58f
11:50 5.5ft 15s 5s 25 27 mph 1015.3mb 61f 58f
10:50 5ft 7s 5s 25 29 mph 1015.5mb 61f 58f
9:50 5.5ft 7s 5s 25 29 mph 1015.4mb 62f 58f
8:50 5.5ft 6s 5s 22 29 mph 1015.3mb 62f 58f
7:50 6ft 6s 5s 25 29 mph 1014.8mb 62f 58f
6:50 6ft 6s 5s 25 29 mph 1014.6mb 62f 57f
5:50 5.5ft 7s 5s 27 31 mph 1014.4mb 62f 58f
4:50 6ft 6s 5s 27 31 mph 1014.4mb 62f 58f
3:50 6ft 7s 5s 27 34 mph 1014.3mb 61f 58f
2:50 6ft 6s 5s 29 34 mph 1014.6mb 61f 58f
1:50 6ft 7s 5s 29 34 mph 1014.8mb 61f 58f
12:50 6ft 7s 5s 29 36 mph 1014.9mb 61f 58f
Di 07/19 11:50 5.5ft 7s 5s 27 34 mph 1015.3mb 61f 59f
10:50 6ft 6s 5s 27 34 mph 1015.1mb 60f 59f
9:50 6ft 7s 5s 27 36 mph 1014.9mb 60f 59f
8:50 6ft 6s 5s 29 34 mph 1014.5mb 60f 59f
7:50 6ft 6s 5s 29 34 mph 1014.2mb 60f 59f
6:50 6ft 6s 5s 29 34 mph 1014.5mb 60f 59f
5:50 6ft 7s 5s 29 36 mph 1014.5mb 60f 59f
4:50 6ft 6s 5s 29 34 mph 1015.2mb 60f 58f
3:50 6ft 6s 5s 31 36 mph 1015.5mb 61f 57f
2:50 6ft 6s 5s 29 34 mph 1015.7mb 61f 57f
1:50 6ft 7s 5s 27 31 mph 1016.5mb 61f 57f
12:50 6ft 7s 5s 25 29 mph 1017mb 62f 57f
11:50 6ft 7s 5s 25 29 mph 1016.9mb 62f 57f
10:50 5.5ft 7s 5s 25 29 mph 1017.1mb 62f 56f
9:50 6ft 7s 5s 22 27 mph 1017.1mb 62f 56f